VLG150 LPFR-LEMH

Flight info

Callsign VLG150
Flight time 1h 39m
Altitude 36000
Route TUPIX DCT OSLEP N747 YES M985 ASTRO Z224 LASPO M871 ORVUS/N0445F370 DCT KABRE
Aircraft A320/M-SDE3FGHIRWY/LB1

Departure

Time 2026-04-17 11:30
Airport Faro - Gago Coutinho International Airport (LPFR)

Arrival

Time 2026-04-17 13:09
Airport Menorca Airport (LEMH)
Time Latitude Longitude Altitude Speed Heading
2026-04-17 11:03 37.01901 -7.96694 20 ft 0 kts
2026-04-17 11:22 37.01900 -7.96694 20 ft 1 kts
2026-04-17 11:22 37.01876 -7.96699 20 ft 4 kts
2026-04-17 11:22 37.01851 -7.96704 20 ft 3 kts
2026-04-17 11:23 37.01825 -7.96704 21 ft 4 kts 333°
2026-04-17 11:23 37.01808 -7.96684 21 ft 3 kts 281°
2026-04-17 11:23 37.01807 -7.96675 21 ft 0 kts 279°
2026-04-17 11:25 37.01807 -7.96676 21 ft 0 kts 279°
2026-04-17 11:25 37.01810 -7.96694 21 ft 4 kts 279°
2026-04-17 11:25 37.01816 -7.96740 22 ft 7 kts 279°
2026-04-17 11:26 37.01824 -7.96801 20 ft 8 kts 279°
2026-04-17 11:26 37.01820 -7.96865 20 ft 7 kts 237°
2026-04-17 11:26 37.01777 -7.96887 20 ft 9 kts 192°
2026-04-17 11:26 37.01702 -7.96910 20 ft 14 kts 208°
2026-04-17 11:27 37.01691 -7.97040 20 ft 18 kts 280°
2026-04-17 11:27 37.01717 -7.97220 21 ft 24 kts 280°
2026-04-17 11:27 37.01749 -7.97444 20 ft 29 kts 279°
2026-04-17 11:27 37.01785 -7.97701 20 ft 31 kts 280°
2026-04-17 11:28 37.01823 -7.97967 20 ft 32 kts 279°
2026-04-17 11:28 37.01861 -7.98244 22 ft 33 kts 280°
2026-04-17 11:28 37.01892 -7.98479 20 ft 13 kts 277°
2026-04-17 11:28 37.01858 -7.98564 20 ft 11 kts 205°
2026-04-17 11:29 37.01789 -7.98577 21 ft 9 kts 188°
2026-04-17 11:29 37.01723 -7.98536 23 ft 14 kts 114°
2026-04-17 11:29 37.01695 -7.98337 23 ft 49 kts 99°
2026-04-17 11:29 37.01594 -7.97631 19 ft 113 kts 100°
2026-04-17 11:30 37.01431 -7.96461 187 ft 145 kts 99°
2026-04-17 11:30 37.01260 -7.95222 901 ft 146 kts 99°
2026-04-17 11:30 37.01085 -7.93935 1328 ft 159 kts 101°
2026-04-17 11:30 37.00881 -7.92419 1546 ft 190 kts 98°
2026-04-17 11:31 37.00807 -7.90684 1917 ft 213 kts 85°
2026-04-17 11:31 37.01081 -7.88778 2577 ft 231 kts 80°
2026-04-17 11:31 37.01402 -7.86721 3119 ft 251 kts 81°
2026-04-17 11:31 37.01732 -7.84535 3910 ft 259 kts 81°
2026-04-17 11:32 37.02044 -7.82296 4791 ft 264 kts 82°
2026-04-17 11:32 37.02348 -7.80009 5647 ft 269 kts 82°
2026-04-17 11:32 37.02650 -7.77677 6608 ft 274 kts 82°
2026-04-17 11:32 37.02953 -7.75306 7463 ft 278 kts 82°
2026-04-17 11:33 37.03261 -7.72892 8255 ft 284 kts 82°
2026-04-17 11:33 37.03571 -7.70461 9043 ft 289 kts 81°
2026-04-17 11:33 37.03890 -7.67950 9830 ft 294 kts 81°
2026-04-17 11:33 37.04215 -7.65384 10426 ft 307 kts 81°
2026-04-17 11:34 37.04562 -7.62640 10673 ft 331 kts 81°
2026-04-17 11:34 37.04935 -7.59699 10924 ft 352 kts 81°
2026-04-17 11:34 37.05322 -7.56629 11498 ft 360 kts 81°
2026-04-17 11:34 37.05712 -7.53514 12202 ft 365 kts 81°
2026-04-17 11:35 37.06109 -7.50360 12925 ft 368 kts 81°
2026-04-17 11:35 37.06482 -7.47369 13593 ft 372 kts 81°
2026-04-17 11:35 37.06884 -7.44152 14265 ft 375 kts 81°
2026-04-17 11:35 37.07303 -7.40915 14899 ft 379 kts 78°
2026-04-17 11:36 37.08056 -7.37744 15528 ft 382 kts 68°
2026-04-17 11:36 37.09267 -7.34775 16152 ft 385 kts 59°
2026-04-17 11:36 37.10633 -7.31874 16795 ft 388 kts 59°
2026-04-17 11:36 37.12003 -7.28954 17419 ft 391 kts 60°
2026-04-17 11:37 37.13382 -7.26003 18037 ft 394 kts 60°
2026-04-17 11:37 37.14770 -7.23022 18621 ft 397 kts 60°
2026-04-17 11:37 37.16100 -7.19970 19148 ft 400 kts 66°
2026-04-17 11:37 37.17033 -7.16671 19670 ft 403 kts 76°
2026-04-17 11:38 37.17679 -7.13236 20206 ft 406 kts 77°
2026-04-17 11:38 37.18327 -7.09773 20744 ft 409 kts 77°
2026-04-17 11:38 37.18978 -7.06332 21262 ft 412 kts 77°
2026-04-17 11:38 37.19646 -7.02819 21763 ft 416 kts 77°
2026-04-17 11:39 37.20317 -6.99277 22265 ft 419 kts 77°
2026-04-17 11:39 37.20992 -6.95704 22758 ft 422 kts 77°
2026-04-17 11:39 37.21670 -6.92100 23232 ft 425 kts 77°
2026-04-17 11:39 37.22348 -6.88474 23699 ft 428 kts 77°
2026-04-17 11:40 37.23030 -6.84817 24082 ft 431 kts 77°
2026-04-17 11:40 37.23718 -6.81141 24478 ft 434 kts 77°
2026-04-17 11:40 37.24407 -6.77448 24833 ft 436 kts 77°
2026-04-17 11:40 37.25098 -6.73727 25191 ft 439 kts 77°
2026-04-17 11:41 37.25793 -6.69993 25554 ft 441 kts 77°
2026-04-17 11:41 37.26494 -6.66227 25917 ft 443 kts 77°
2026-04-17 11:41 37.27190 -6.62472 26270 ft 446 kts 77°
2026-04-17 11:41 37.27895 -6.58642 26616 ft 448 kts 77°
2026-04-17 11:42 37.28597 -6.54814 26959 ft 450 kts 78°
2026-04-17 11:42 37.29290 -6.51024 27292 ft 452 kts 78°
2026-04-17 11:42 37.29998 -6.47160 27616 ft 455 kts 78°
2026-04-17 11:42 37.30710 -6.43283 27932 ft 457 kts 78°
2026-04-17 11:43 37.31424 -6.39384 28236 ft 459 kts 78°
2026-04-17 11:43 37.32140 -6.35458 28548 ft 461 kts 78°
2026-04-17 11:43 37.32855 -6.31522 28828 ft 463 kts 78°
2026-04-17 11:43 37.33570 -6.27567 29114 ft 465 kts 78°
2026-04-17 11:44 37.34285 -6.23600 29384 ft 467 kts 78°
2026-04-17 11:44 37.35006 -6.19618 29650 ft 469 kts 78°
2026-04-17 11:44 37.35732 -6.15606 29907 ft 470 kts 78°
2026-04-17 11:44 37.36449 -6.11637 30160 ft 471 kts 78°
2026-04-17 11:45 37.37175 -6.07622 30461 ft 471 kts 78°
2026-04-17 11:45 37.37895 -6.03620 30769 ft 470 kts 78°
2026-04-17 11:45 37.38612 -5.99612 31064 ft 469 kts 78°
2026-04-17 11:45 37.39325 -5.95614 31358 ft 468 kts 78°
2026-04-17 11:46 37.40034 -5.91622 31656 ft 468 kts 78°
2026-04-17 11:46 37.40740 -5.87634 31953 ft 467 kts 78°
2026-04-17 11:46 37.41444 -5.83651 32254 ft 466 kts 78°
2026-04-17 11:46 37.42148 -5.79673 32552 ft 466 kts 78°
2026-04-17 11:47 37.43000 -5.75744 32842 ft 466 kts 71°
2026-04-17 11:47 37.44252 -5.71986 33133 ft 466 kts 66°
2026-04-17 11:47 37.45572 -5.68266 33429 ft 465 kts 67°
2026-04-17 11:47 37.46882 -5.64544 33737 ft 465 kts 67°
2026-04-17 11:48 37.48133 -5.60959 34022 ft 464 kts 67°
2026-04-17 11:48 37.49429 -5.57232 34306 ft 463 kts 67°
2026-04-17 11:48 37.50703 -5.53565 34559 ft 463 kts 67°
2026-04-17 11:48 37.51996 -5.49846 34811 ft 463 kts 67°
2026-04-17 11:49 37.53287 -5.46134 35047 ft 463 kts 67°
2026-04-17 11:49 37.54581 -5.42413 35279 ft 463 kts 67°
2026-04-17 11:49 37.55872 -5.38700 35498 ft 463 kts 67°
2026-04-17 11:49 37.57166 -5.34975 35714 ft 463 kts 67°
2026-04-17 11:50 37.58454 -5.31259 35921 ft 463 kts 67°
2026-04-17 11:50 37.59742 -5.27534 36102 ft 463 kts 67°
2026-04-17 11:50 37.62307 -5.20119 36147 ft 464 kts 67°
2026-04-17 11:51 37.64886 -5.12646 36144 ft 464 kts 67°
2026-04-17 11:51 37.67456 -5.05174 36146 ft 464 kts 67°
2026-04-17 11:52 37.70025 -4.97691 36142 ft 464 kts 68°
2026-04-17 11:52 37.72590 -4.90211 36142 ft 464 kts 68°
2026-04-17 11:53 37.74721 -4.83981 36143 ft 464 kts 68°
2026-04-17 11:53 37.77270 -4.76498 36144 ft 464 kts 68°
2026-04-17 11:54 37.79820 -4.69003 36148 ft 464 kts 68°
2026-04-17 11:54 37.82357 -4.61496 36155 ft 464 kts 68°
2026-04-17 11:55 37.84880 -4.53986 36162 ft 464 kts 68°
2026-04-17 11:55 37.87405 -4.46475 36165 ft 464 kts 68°
2026-04-17 11:56 37.89930 -4.38954 36168 ft 463 kts 68°
2026-04-17 11:56 37.92435 -4.31491 36168 ft 464 kts 68°
2026-04-17 11:57 37.94947 -4.23975 36166 ft 463 kts 68°
2026-04-17 11:57 37.97455 -4.16441 36169 ft 464 kts 68°
2026-04-17 11:58 37.99965 -4.08911 36167 ft 464 kts 68°
2026-04-17 11:58 38.02466 -4.01365 36169 ft 464 kts 68°
2026-04-17 11:59 38.04958 -3.93810 36170 ft 464 kts 68°
2026-04-17 11:59 38.07451 -3.86251 36170 ft 464 kts 68°
2026-04-17 12:00 38.09927 -3.78736 36177 ft 464 kts 69°
2026-04-17 12:00 38.12409 -3.71189 36177 ft 463 kts 69°
2026-04-17 12:01 38.14857 -3.63623 36177 ft 462 kts 72°
2026-04-17 12:01 38.16404 -3.55730 36175 ft 460 kts 79°
2026-04-17 12:02 38.17747 -3.47768 36170 ft 460 kts 79°
2026-04-17 12:02 38.19088 -3.39812 36169 ft 460 kts 79°
2026-04-17 12:03 38.20414 -3.31849 36172 ft 461 kts 79°
2026-04-17 12:03 38.21736 -3.23876 36173 ft 461 kts 79°
2026-04-17 12:04 38.23053 -3.15902 36173 ft 461 kts 79°
2026-04-17 12:04 38.24360 -3.07970 36175 ft 461 kts 79°
2026-04-17 12:05 38.25677 -2.99979 36183 ft 461 kts 79°
2026-04-17 12:05 38.26986 -2.91986 36186 ft 461 kts 79°
2026-04-17 12:06 38.28284 -2.83989 36191 ft 461 kts 79°
2026-04-17 12:06 38.29579 -2.75994 36192 ft 461 kts 79°
2026-04-17 12:07 38.30868 -2.68000 36199 ft 461 kts 79°
2026-04-17 12:07 38.32140 -2.60049 36202 ft 461 kts 79°
2026-04-17 12:08 38.33425 -2.52050 36201 ft 461 kts 79°
2026-04-17 12:08 38.34695 -2.44048 36202 ft 461 kts 79°
2026-04-17 12:09 38.36392 -2.36189 36201 ft 461 kts 66°
2026-04-17 12:09 38.39786 -2.29277 36204 ft 461 kts 51°
2026-04-17 12:10 38.43781 -2.22861 36205 ft 461 kts 52°
2026-04-17 12:10 38.47745 -2.16419 36206 ft 461 kts 52°
2026-04-17 12:11 38.51697 -2.09972 36203 ft 461 kts 52°
2026-04-17 12:12 38.57633 -2.00289 36201 ft 461 kts 52°
2026-04-17 12:12 38.61563 -1.93873 36201 ft 461 kts 52°
2026-04-17 12:13 38.65509 -1.87418 36208 ft 461 kts 52°
2026-04-17 12:13 38.69374 -1.81068 36208 ft 461 kts 52°
2026-04-17 12:14 38.73308 -1.74604 36214 ft 461 kts 52°
2026-04-17 12:14 38.77241 -1.68126 36215 ft 461 kts 52°
2026-04-17 12:15 38.81179 -1.61640 36215 ft 461 kts 52°
2026-04-17 12:15 38.85106 -1.55153 36214 ft 460 kts 52°
2026-04-17 12:16 38.89021 -1.48658 36206 ft 460 kts 52°
2026-04-17 12:16 38.92935 -1.42160 36196 ft 460 kts 52°
2026-04-17 12:17 38.96842 -1.35653 36194 ft 459 kts 52°
2026-04-17 12:17 39.00718 -1.29174 36193 ft 459 kts 52°
2026-04-17 12:18 39.03964 -1.22121 36188 ft 460 kts 65°
2026-04-17 12:18 39.06664 -1.14670 36182 ft 459 kts 64°
2026-04-17 12:19 39.09365 -1.07205 36179 ft 460 kts 64°
2026-04-17 12:19 39.12061 -0.99738 36178 ft 460 kts 64°
2026-04-17 12:20 39.14696 -0.92404 36180 ft 460 kts 64°
2026-04-17 12:20 39.17381 -0.84946 36178 ft 460 kts 64°
2026-04-17 12:21 39.20060 -0.77466 36178 ft 460 kts 65°
2026-04-17 12:21 39.22727 -0.69969 36177 ft 460 kts 65°
2026-04-17 12:22 39.25391 -0.62483 36175 ft 459 kts 64°
2026-04-17 12:22 39.27808 -0.54859 36175 ft 460 kts 75°
2026-04-17 12:23 39.28670 -0.46753 36176 ft 460 kts 86°
2026-04-17 12:23 39.29102 -0.38507 36173 ft 460 kts 85°
2026-04-17 12:24 39.29545 -0.30273 36177 ft 460 kts 85°
2026-04-17 12:24 39.29978 -0.22026 36183 ft 460 kts 85°
2026-04-17 12:25 39.30399 -0.13790 36190 ft 460 kts 85°
2026-04-17 12:25 39.30819 -0.05551 36191 ft 460 kts 85°
2026-04-17 12:26 39.31223 0.02540 36193 ft 459 kts 85°
2026-04-17 12:26 39.31624 0.10773 36194 ft 459 kts 85°
2026-04-17 12:27 39.32019 0.18968 36194 ft 459 kts 85°
2026-04-17 12:27 39.32411 0.27188 36194 ft 459 kts 85°
2026-04-17 12:28 39.32799 0.35423 36196 ft 459 kts 85°
2026-04-17 12:28 39.33100 0.43654 36193 ft 459 kts 91°
2026-04-17 12:29 39.32609 0.51876 36204 ft 459 kts 94°
2026-04-17 12:29 39.32073 0.60093 36201 ft 459 kts 94°
2026-04-17 12:30 39.31537 0.68304 36207 ft 459 kts 94°
2026-04-17 12:30 39.30999 0.76466 36206 ft 459 kts 94°
2026-04-17 12:31 39.30451 0.84671 36208 ft 458 kts 94°
2026-04-17 12:31 39.29900 0.92881 36211 ft 458 kts 94°
2026-04-17 12:32 39.29359 1.00856 36212 ft 457 kts 94°
2026-04-17 12:32 39.28795 1.09034 36211 ft 457 kts 94°
2026-04-17 12:33 39.28223 1.17209 36204 ft 457 kts 94°
2026-04-17 12:33 39.27646 1.25382 36202 ft 456 kts 94°
2026-04-17 12:34 39.27070 1.33475 36200 ft 456 kts 94°
2026-04-17 12:34 39.26486 1.41624 36198 ft 456 kts 94°
2026-04-17 12:35 39.25899 1.49770 36202 ft 455 kts 93°
2026-04-17 12:35 39.25308 1.57901 36198 ft 455 kts 94°
2026-04-17 12:37 39.22887 1.90143 36208 ft 454 kts 93°
2026-04-17 12:38 39.22263 1.98243 36210 ft 454 kts 93°
2026-04-17 12:38 39.21633 2.06346 36214 ft 454 kts 93°
2026-04-17 12:39 39.21000 2.14448 36210 ft 454 kts 93°
2026-04-17 12:39 39.20366 2.22544 36209 ft 454 kts 93°
2026-04-17 12:40 39.19725 2.30634 36209 ft 454 kts 93°
2026-04-17 12:40 39.19078 2.38672 36209 ft 453 kts 93°
2026-04-17 12:41 39.18424 2.46756 36209 ft 453 kts 93°
2026-04-17 12:41 39.17767 2.54827 36211 ft 453 kts 93°
2026-04-17 12:42 39.17213 2.61596 36210 ft 453 kts 93°
2026-04-17 12:42 39.16542 2.69661 35995 ft 453 kts 93°
2026-04-17 12:42 39.16205 2.73691 35749 ft 453 kts 93°
2026-04-17 12:43 39.15871 2.77677 35502 ft 453 kts 94°
2026-04-17 12:43 39.15525 2.81764 35254 ft 453 kts 94°
2026-04-17 12:43 39.15187 2.85746 35015 ft 454 kts 94°
2026-04-17 12:43 39.15032 2.89797 34774 ft 451 kts 84°
2026-04-17 12:44 39.15404 2.93780 34538 ft 447 kts 75°
2026-04-17 12:44 39.16290 2.97602 34305 ft 444 kts 65°
2026-04-17 12:44 39.17662 3.01152 34043 ft 441 kts 56°
2026-04-17 12:44 39.19433 3.04369 33775 ft 440 kts 50°
2026-04-17 12:45 39.21278 3.07527 33507 ft 441 kts 51°
2026-04-17 12:45 39.23117 3.10698 33242 ft 442 kts 51°
2026-04-17 12:45 39.24958 3.13886 32972 ft 443 kts 51°
2026-04-17 12:45 39.26797 3.17075 32720 ft 443 kts 51°
2026-04-17 12:46 39.28640 3.20274 32463 ft 444 kts 51°
2026-04-17 12:46 39.30480 3.23472 32206 ft 445 kts 52°
2026-04-17 12:46 39.31963 3.26988 31941 ft 450 kts 68°
2026-04-17 12:46 39.32766 3.30918 31627 ft 452 kts 75°
2026-04-17 12:47 39.33431 3.34884 30767 ft 453 kts 75°
2026-04-17 12:47 39.34091 3.38871 29792 ft 454 kts 75°
2026-04-17 12:47 39.34747 3.42839 29062 ft 449 kts 75°
2026-04-17 12:47 39.35470 3.46674 28359 ft 442 kts 70°
2026-04-17 12:48 39.36564 3.50347 27681 ft 435 kts 63°
2026-04-17 12:48 39.37949 3.53791 27014 ft 429 kts 58°
2026-04-17 12:48 39.39474 3.57076 26365 ft 424 kts 56°
2026-04-17 12:48 39.41014 3.60288 25570 ft 415 kts 56°
2026-04-17 12:49 39.42496 3.63467 24510 ft 410 kts 58°
2026-04-17 12:49 39.43902 3.66649 23457 ft 405 kts 59°
2026-04-17 12:49 39.45236 3.69828 22336 ft 400 kts 60°
2026-04-17 12:49 39.46510 3.72969 21809 ft 382 kts 60°
2026-04-17 12:50 39.47692 3.75930 21675 ft 356 kts 60°
2026-04-17 12:50 39.48795 3.78697 21306 ft 340 kts 60°
2026-04-17 12:50 39.49876 3.81380 20681 ft 333 kts 60°
2026-04-17 12:50 39.50946 3.84016 20009 ft 328 kts 60°
2026-04-17 12:51 39.52008 3.86616 19339 ft 325 kts 60°
2026-04-17 12:51 39.53064 3.89192 18687 ft 323 kts 60°
2026-04-17 12:51 39.54111 3.91751 17982 ft 320 kts 60°
2026-04-17 12:51 39.55147 3.94289 17280 ft 317 kts 60°
2026-04-17 12:52 39.56153 3.96768 16620 ft 314 kts 60°
2026-04-17 12:52 39.57170 3.99277 16207 ft 313 kts 60°
2026-04-17 12:52 39.58182 4.01768 15874 ft 311 kts 60°
2026-04-17 12:52 39.59186 4.04245 15535 ft 310 kts 60°
2026-04-17 12:53 39.60184 4.06711 15191 ft 308 kts 60°
2026-04-17 12:53 39.61177 4.09167 14911 ft 305 kts 60°
2026-04-17 12:53 39.62146 4.11564 14785 ft 296 kts 60°
2026-04-17 12:53 39.63099 4.13923 14292 ft 301 kts 60°
2026-04-17 12:54 39.64098 4.16388 13481 ft 315 kts 60°
2026-04-17 12:54 39.65279 4.18785 12600 ft 314 kts 43°
2026-04-17 12:54 39.67109 4.20221 11772 ft 309 kts 14°
2026-04-17 12:54 39.69219 4.20247 10974 ft 306 kts 344°
2026-04-17 12:55 39.71057 4.18909 10200 ft 306 kts 321°
2026-04-17 12:55 39.72755 4.17286 9372 ft 301 kts 337°
2026-04-17 12:55 39.74774 4.16830 8547 ft 296 kts
2026-04-17 12:55 39.76628 4.17793 7781 ft 292 kts 38°
2026-04-17 12:56 39.77807 4.19896 7025 ft 291 kts 70°
2026-04-17 12:56 39.78041 4.22494 6266 ft 291 kts 90°
2026-04-17 12:56 39.77795 4.25096 5490 ft 290 kts 99°
2026-04-17 12:56 39.77207 4.27591 4719 ft 289 kts 112°
2026-04-17 12:57 39.76138 4.29767 4164 ft 281 kts 131°
2026-04-17 12:57 39.74674 4.31283 4008 ft 260 kts 150°
2026-04-17 12:57 39.73031 4.32073 4004 ft 247 kts 168°
2026-04-17 12:57 39.71332 4.32298 4011 ft 245 kts 178°
2026-04-17 12:58 39.69623 4.32326 3746 ft 247 kts 181°
2026-04-17 12:58 39.67913 4.32284 3551 ft 243 kts 182°
2026-04-17 12:58 39.66260 4.31934 3493 ft 241 kts 199°
2026-04-17 12:58 39.64764 4.30991 3440 ft 239 kts 217°
2026-04-17 12:59 39.63560 4.29530 3411 ft 236 kts 234°
2026-04-17 12:59 39.62754 4.27694 3413 ft 234 kts 252°
2026-04-17 12:59 39.62405 4.25659 3408 ft 231 kts 269°
2026-04-17 12:59 39.62539 4.23602 3406 ft 228 kts 286°
2026-04-17 13:00 39.63126 4.21707 3410 ft 226 kts 303°
2026-04-17 13:00 39.64099 4.20120 3415 ft 224 kts 319°
2026-04-17 13:00 39.65370 4.18973 3408 ft 223 kts 335°
2026-04-17 13:00 39.66840 4.18342 3410 ft 223 kts 351°
2026-04-17 13:01 39.68387 4.18173 3411 ft 223 kts 359°
2026-04-17 13:01 39.69894 4.18571 3410 ft 224 kts 27°
2026-04-17 13:01 39.71033 4.19937 3413 ft 227 kts 58°
2026-04-17 13:01 39.71473 4.21902 3411 ft 232 kts 89°
2026-04-17 13:02 39.71054 4.23889 3408 ft 236 kts 121°
2026-04-17 13:02 39.69841 4.25316 3412 ft 239 kts 155°
2026-04-17 13:02 39.68216 4.25675 3417 ft 240 kts 183°
2026-04-17 13:02 39.66542 4.25596 3413 ft 241 kts 181°
2026-04-17 13:03 39.64864 4.25569 3410 ft 241 kts 181°
2026-04-17 13:03 39.63184 4.25557 3412 ft 241 kts 181°
2026-04-17 13:03 39.61548 4.25223 3406 ft 238 kts 209°
2026-04-17 13:03 39.60417 4.23745 3403 ft 233 kts 250°
2026-04-17 13:04 39.60256 4.21718 3418 ft 227 kts 284°
2026-04-17 13:04 39.60859 4.19850 3415 ft 225 kts 307°
2026-04-17 13:04 39.61951 4.18412 3413 ft 224 kts 327°
2026-04-17 13:04 39.63356 4.17587 3413 ft 223 kts 347°
2026-04-17 13:05 39.64898 4.17487 3411 ft 223 kts
2026-04-17 13:05 39.66432 4.17799 3415 ft 224 kts
2026-04-17 13:05 39.67968 4.18117 3412 ft 224 kts
2026-04-17 13:05 39.69485 4.18428 3317 ft 216 kts
2026-04-17 13:06 39.70954 4.18729 3079 ft 212 kts
2026-04-17 13:06 39.72394 4.19023 2806 ft 206 kts
2026-04-17 13:06 39.73770 4.19305 2570 ft 194 kts
2026-04-17 13:06 39.75081 4.19573 2302 ft 185 kts
2026-04-17 13:07 39.76301 4.19823 2052 ft 169 kts
2026-04-17 13:07 39.77392 4.20047 1890 ft 150 kts
2026-04-17 13:07 39.78384 4.20244 1689 ft 139 kts
2026-04-17 13:07 39.79326 4.20429 1431 ft 134 kts
2026-04-17 13:08 39.80246 4.20630 1211 ft 133 kts
2026-04-17 13:08 39.81173 4.20825 1019 ft 136 kts
2026-04-17 13:08 39.82121 4.21012 824 ft 140 kts
2026-04-17 13:08 39.83097 4.21214 640 ft 144 kts 11°
2026-04-17 13:09 39.84089 4.21422 508 ft 144 kts 10°
2026-04-17 13:09 39.85078 4.21617 329 ft 144 kts 11°
2026-04-17 13:09 39.85991 4.21810 304 ft 111 kts
2026-04-17 13:09 39.86519 4.21918 303 ft 22 kts
2026-04-17 13:10 39.86572 4.21985 301 ft 12 kts 90°
2026-04-17 13:10 39.86561 4.22086 297 ft 11 kts 102°
2026-04-17 13:10 39.86547 4.22202 293 ft 16 kts 98°
2026-04-17 13:10 39.86540 4.22268 292 ft 4 kts 98°
2026-04-17 13:11 39.86528 4.22308 290 ft 5 kts 128°
2026-04-17 13:11 39.86494 4.22321 289 ft 5 kts 185°
2026-04-17 13:11 39.86471 4.22340 289 ft 4 kts 109°
2026-04-17 13:11 39.86467 4.22387 286 ft 6 kts 99°
2026-04-17 13:12 39.86465 4.22403 286 ft 0 kts 99°